パンスターズ彗星

P/2024 R3 ( PanSTARRS )

English version
Home page
Updated on November 27, 2024

---------------------------------------------------------------------

・ プロフィール

発見日 2024年9月8日
発見光度 21.1等
発見者 Pan-STARRS 2 telescope (Haleakala)

・ 軌道要素

Epoch 2024 Oct. 17.0 TT = JDT 2460600.5
T 2024 May 7.76857 TT                                   Rudenko
q   2.3452039            (2000.0)            P               Q
n   0.17240259     Peri.  309.11264     +0.93916052     +0.31385225
a   3.1972274      Node    33.28127     -0.17945800     +0.79478362
e   0.2664883      Incl.   14.73247     -0.29286917     +0.51943794
P   5.72
From 74 observations 2024 Sept. 8-Nov. 5, mean residual 0".7.

・ 光度変化

        m1 = 14.5 + 5 logΔ + 10.0 log r

---------------------------------------------------------------------

軌道要素はM.P.E.C. 2024-V117に掲載されたものです。
光度グラフはComet for Windowsで作成したものです。

---------------------------------------------------------------------

Copyright(C) Seiichi Yoshida (comet@aerith.net). All rights reserved.